GW0319 Weather Reports


time (UTC)temp
C
wind
direction
speed
KPH
gust
KPH
rain 1hr
cm
rain 24hr
cm
rain mn
cm
humidity
%
barometer
mb
20260506155417 13 145 8.0 9.7 0.00 0.00 0.00 86 1020.4
20260506154916 13 176 3.2 3.2 0.00 0.00 0.00 86 1020.3
20260506154420 13 140 4.8 6.4 0.00 0.00 0.00 87 1020.2
20260506153918 13 174 0.0 3.2 0.00 0.00 0.00 88 1020.4
20260506153416 13 193 1.6 3.2 0.00 0.00 0.00 88 1020.4
20260506152916 12 173 3.2 4.8 0.00 0.00 0.00 89 1020.3
20260506152419 12 0 0.0 1.6 0.00 0.00 0.00 89 1020.3
20260506151939 12 0 0.0 1.6 0.00 0.00 0.00 89 1020.3
20260506151417 12 0 0.0 0.0 0.00 0.00 0.00 90 1020.1
20260506150936 12 0 0.0 0.0 0.00 0.00 0.00 90 1020.1
20260506150420 12 0 0.0 1.6 0.00 0.00 0.00 90 1020.0
20260506145918 12 0 0.0 0.0 0.00 0.00 0.00 90 1020.2
20260506145437 12 199 1.6 3.2 0.00 0.00 0.00 90 1020.2
20260506144915 12 191 1.6 3.2 0.00 0.00 0.00 90 1020.3
20260506144419 12 147 0.0 1.6 0.00 0.00 0.00 90 1020.2
20260506143918 12 206 1.6 3.2 0.00 0.00 0.00 91 1020.4
20260506143417 12 189 1.6 3.2 0.00 0.00 0.00 91 1020.1
20260506142916 12 148 1.6 3.2 0.00 0.00 0.00 91 1020.1
20260506142419 12 182 1.6 3.2 0.00 0.00 0.00 92 1020.0
20260506141918 12 199 1.6 3.2 0.00 0.00 0.00 92 1020.1
20260506141437 11 201 1.6 3.2 0.00 0.03 0.00 92 1020.3
20260506140915 11 188 1.6 3.2 0.00 0.03 0.00 92 1020.0
20260506140419 11 190 1.6 3.2 0.00 0.03 0.00 92 1020.0
20260506135918 11 171 1.6 3.2 0.00 0.03 0.00 92 1019.9
20260506135417 11 147 1.6 3.2 0.00 0.03 0.00 92 1019.8
20260506134916 11 0 0.0 1.6 0.00 0.03 0.00 92 1019.8
20260506134419 11 0 0.0 1.6 0.00 0.03 0.00 92 1019.8
20260506133919 11 0 0.0 3.2 0.00 0.03 0.00 92 1020.0
20260506133438 11 118 1.6 3.2 0.00 0.03 0.00 92 1020.0
20260506132916 11 201 0.0 1.6 0.00 0.03 0.00 92 1019.8
20260506132420 11 183 1.6 3.2 0.00 0.03 0.00 92 1019.7
20260506131919 11 0 0.0 1.6 0.00 0.03 0.00 92 1019.7
20260506131417 11 0 0.0 0.0 0.00 0.03 0.00 92 1019.5
20260506130916 11 0 0.0 1.6 0.00 0.03 0.00 92 1019.6
20260506130419 11 0 0.0 3.2 0.00 0.03 0.00 92 1019.6
20260506125918 11 0 0.0 0.0 0.00 0.03 0.00 92 1019.6
20260506125417 11 0 0.0 1.6 0.00 0.03 0.00 92 1019.8
20260506124916 11 120 0.0 3.2 0.00 0.03 0.00 92 1019.4
20260506124440 11 0 0.0 0.0 0.00 0.03 0.00 92 1019.5
20260506123919 11 0 0.0 0.0 0.00 0.03 0.00 92 1019.3
20260506123438 11 0 0.0 0.0 0.00 0.03 0.00 91 1019.4
20260506122937 11 0 0.0 1.6 0.00 0.03 0.00 91 1019.5
20260506122420 11 0 0.0 1.6 0.00 0.03 0.00 91 1019.5
20260506121919 11 0 0.0 0.0 0.00 0.03 0.00 91 1019.4
20260506121418 11 0 0.0 0.0 0.00 0.03 0.00 91 1019.3
20260506120917 11 204 0.0 1.6 0.00 0.03 0.00 91 1019.2
20260506120420 11 0 0.0 1.6 0.00 0.03 0.00 91 1019.3
20260506115919 11 0 0.0 0.0 0.00 0.03 0.00 91 1019.2
20260506115417 11 0 0.0 0.0 0.00 0.03 0.00 91 1019.2
20260506114916 11 0 0.0 0.0 0.00 0.03 0.00 91 1019.2
20260506114456 11 226 0.0 1.6 0.00 0.03 0.00 91 1019.2
20260506113919 11 0 0.0 0.0 0.00 0.03 0.00 91 1019.2
20260506113418 11 0 0.0 0.0 0.00 0.03 0.00 91 1019.2
20260506112917 11 0 0.0 0.0 0.00 0.03 0.00 91 1019.2
20260506112415 11 0 0.0 1.6 0.00 0.03 0.00 91 1019.1
20260506111919 11 0 0.0 1.6 0.00 0.03 0.00 91 1019.1
20260506111417 11 0 0.0 1.6 0.00 0.03 0.00 91 1019.0
20260506110917 11 0 0.0 1.6 0.00 0.03 0.00 91 1019.0
20260506110415 11 0 0.0 0.0 0.00 0.03 0.00 91 1019.1
20260506105920 11 132 0.0 1.6 0.00 0.03 0.00 91 1019.0
20260506105418 11 0 0.0 3.2 0.00 0.03 0.00 91 1019.0
20260506104917 11 0 0.0 1.6 0.00 0.03 0.00 91 1018.8
20260506104436 11 0 0.0 0.0 0.00 0.03 0.00 91 1018.8
20260506103920 11 0 0.0 1.6 0.00 0.03 0.00 91 1018.8
20260506103418 10 0 0.0 1.6 0.00 0.03 0.00 91 1018.9
20260506102917 10 0 0.0 1.6 0.00 0.03 0.00 91 1018.6
20260506102436 10 137 1.6 1.6 0.00 0.03 0.00 91 1018.8
20260506101919 10 216 0.0 3.2 0.00 0.03 0.00 91 1018.7
20260506101418 10 0 0.0 1.6 0.00 0.03 0.00 91 1018.6
20260506100917 10 183 0.0 1.6 0.00 0.03 0.00 91 1018.7
20260506100416 10 0 0.0 0.0 0.00 0.03 0.00 91 1018.7
20260506095919 10 0 0.0 0.0 0.00 0.03 0.00 91 1019.0
20260506095418 10 0 0.0 0.0 0.00 0.03 0.00 91 1018.6
20260506094917 10 0 0.0 0.0 0.00 0.03 0.00 91 1018.6
20260506094436 10 0 0.0 1.6 0.00 0.03 0.00 91 1018.7
20260506093940 10 0 0.0 0.0 0.00 0.03 0.00 91 1018.8
20260506093418 10 204 0.0 1.6 0.00 0.03 0.00 91 1018.7
20260506092916 10 0 0.0 0.0 0.00 0.03 0.00 91 1018.8
20260506092416 10 0 0.0 1.6 0.00 0.03 0.00 91 1018.7
20260506091920 10 0 0.0 1.6 0.00 0.03 0.00 91 1018.8
20260506091419 10 0 0.0 0.0 0.00 0.03 0.00 91 1018.7
20260506090917 10 0 0.0 0.0 0.00 0.03 0.00 91 1018.8
20260506090416 10 212 0.0 1.6 0.00 0.05 0.00 91 1018.8
20260506085920 10 201 0.0 1.6 0.00 0.05 0.00 91 1018.6
20260506085418 10 0 0.0 0.0 0.00 0.05 0.00 91 1018.9
20260506083940 9 0 0.0 1.6 0.00 0.08 0.00 91 1018.9
20260506083418 9 0 0.0 0.0 0.00 0.08 0.00 91 1019.0
20260506082938 9 0 0.0 1.6 0.00 0.08 0.00 91 1018.9
20260506082416 9 0 0.0 0.0 0.00 0.08 0.00 91 1018.8
20260506081940 9 211 0.0 1.6 0.00 0.08 0.00 91 1018.7
20260506081418 8 0 0.0 1.6 0.00 0.08 0.00 90 1018.8
20260506080917 8 0 0.0 1.6 0.00 0.10 0.00 90 1018.7
20260506080437 8 0 0.0 0.0 0.00 0.10 0.00 90 1018.8
20260506073419 8 206 0.0 1.6 0.00 0.15 0.00 90 1018.5
20260506072917 8 230 1.6 3.2 0.00 0.18 0.00 90 1018.6
20260506072416 8 234 0.0 1.6 0.00 0.18 0.00 90 1018.5
20260506071920 8 0 0.0 1.6 0.00 0.20 0.00 90 1018.4
20260506071419 8 213 0.0 1.6 0.00 0.20 0.00 89 1018.4
20260506070917 8 0 0.0 1.6 0.00 0.20 0.00 89 1018.2
20260506070417 8 0 0.0 1.6 0.00 0.20 0.00 89 1018.6
20260506062416 9 0 0.0 1.6 0.00 0.20 0.20 88 1018.3
20260506061941 9 0 0.0 1.6 0.00 0.20 0.20 88 1018.1
20260506061419 9 0 0.0 1.6 0.00 0.23 0.20 88 1018.2
20260506060938 9 0 0.0 0.0 0.00 0.23 0.20 88 1018.0
20260506060416 9 0 0.0 1.6 0.00 0.23 0.20 88 1018.1
20260506050918 10 0 0.0 0.0 0.00 0.30 0.20 86 1017.8
20260506050417 10 0 0.0 0.0 0.00 0.30 0.20 86 1017.7
20260506044918 10 0 0.0 0.0 0.00 0.36 0.20 86 1017.7
20260506044417 10 0 0.0 0.0 0.00 0.38 0.20 85 1017.6
20260506043915 11 0 0.0 1.6 0.00 0.43 0.20 85 1017.5
20260506043440 11 0 0.0 0.0 0.00 0.46 0.20 85 1017.5
20260506042918 11 253 0.0 1.6 0.00 0.48 0.20 85 1017.5
20260506042417 11 0 0.0 1.6 0.00 0.48 0.20 85 1017.5
20260506041916 11 0 0.0 1.6 0.00 0.48 0.20 84 1017.0
20260506041419 11 0 0.0 0.0 0.00 0.51 0.20 84 1016.9
20260506040918 11 217 1.6 1.6 0.00 0.53 0.20 84 1017.1
20260506040437 11 0 0.0 0.0 0.00 0.53 0.20 83 1017.0
20260506035915 11 0 0.0 0.0 0.00 0.56 0.20 83 1016.8
20260506035520 12 0 0.0 0.0 0.00 0.56 0.20 83 1016.7
20260506034938 12 0 0.0 0.0 0.00 0.56 0.20 83 1016.7
20260506034437 12 0 0.0 0.0 0.00 0.56 0.20 82 1016.6
20260506033915 12 194 0.0 1.6 0.00 0.56 0.20 82 1016.6
20260506033418 12 0 0.0 3.2 0.00 0.56 0.20 82 1016.5
20260506032918 12 157 0.0 1.6 0.00 0.58 0.20 81 1016.4
20260506032416 13 144 3.2 3.2 0.00 0.58 0.20 81 1016.4
20260506031915 13 190 3.2 3.2 0.00 0.58 0.20 81 1016.3
20260506031500 13 190 1.6 3.2 0.00 0.61 0.20 81 1016.3
20260506030918 13 189 3.2 3.2 0.00 0.61 0.20 81 1016.2
20260506030417 13 193 3.2 3.2 0.00 0.61 0.20 81 1016.0
20260506025915 13 194 3.2 3.2 0.00 0.61 0.20 80 1015.8
20260506025500 13 193 3.2 3.2 0.00 0.64 0.20 80 1015.9
20260506024918 13 189 3.2 3.2 0.00 0.64 0.20 80 1015.6
20260506024417 13 190 1.6 3.2 0.00 0.64 0.20 79 1016.0
20260506023915 14 193 3.2 3.2 0.00 0.64 0.20 79 1015.9
20260506023419 14 170 1.6 3.2 0.00 0.64 0.20 78 1015.9
20260506022918 14 199 1.6 3.2 0.00 0.64 0.20 78 1015.9
20260506022417 14 163 3.2 6.4 0.00 0.64 0.20 78 1015.9
20260506021915 14 201 3.2 6.4 0.00 0.64 0.20 78 1015.9
20260506021439 14 186 1.6 3.2 0.00 0.64 0.20 77 1015.4
20260506020918 15 187 3.2 3.2 0.00 0.64 0.20 77 1015.6
20260506020417 15 213 0.0 3.2 0.00 0.64 0.20 77 1015.6
20260506020001 15 205 1.6 3.2 0.00 0.64 0.20 77 1015.6
20260506015440 15 206 1.6 3.2 0.00 0.64 0.20 77 1015.5
20260506014918 15 232 1.6 3.2 0.00 0.64 0.20 76 1015.7
20260506014518 15 200 1.6 3.2 0.00 0.64 0.20 77 1015.4
20260506013916 15 214 1.6 4.8 0.00 0.66 0.20 76 1015.2
20260506013420 15 209 1.6 3.2 0.00 0.66 0.20 77 1015.7
20260506012918 15 170 3.2 3.2 0.00 0.66 0.20 76 1015.4
20260506012416 15 191 3.2 8.0 0.00 0.66 0.20 76 1015.6
20260506011915 15 197 1.6 4.8 0.00 0.66 0.20 76 1015.4
20260506011420 15 181 1.6 4.8 0.00 0.66 0.20 77 1015.5
20260506010938 16 146 3.2 6.4 0.00 0.66 0.20 76 1015.7
20260506010417 16 184 3.2 3.2 0.00 0.66 0.20 76 1015.4
20260506005915 16 151 1.6 3.2 0.00 0.66 0.20 76 1015.3
20260506005419 16 193 1.6 3.2 0.00 0.66 0.20 75 1015.4
20260506004918 16 181 3.2 4.8 0.00 0.66 0.20 75 1015.3
20260506004417 16 181 3.2 4.8 0.00 0.69 0.20 75 1015.2
20260506003916 16 197 3.2 4.8 0.00 0.69 0.20 74 1015.4
20260506003419 16 180 3.2 4.8 0.00 0.69 0.20 75 1015.2
20260506002918 16 168 4.8 4.8 0.00 0.69 0.20 76 1015.2
20260506002416 16 182 1.6 6.4 0.00 0.69 0.20 74 1015.2
20260506001915 16 210 3.2 4.8 0.00 0.69 0.20 74 1015.0
20260506001419 16 160 3.2 3.2 0.00 0.69 0.20 74 1015.0
20260506000917 16 185 3.2 3.2 0.00 0.69 0.20 75 1015.0
20260506000417 16 191 3.2 4.8 0.00 0.69 0.20 74 1015.1
20260505235915 16 191 3.2 4.8 0.00 0.69 0.20 75 1015.1
20260505235419 16 174 1.6 4.8 0.00 0.69 0.20 74 1015.1
20260505234938 16 183 3.2 4.8 0.00 0.69 0.20 75 1015.1
20260505234416 16 258 4.8 6.4 0.00 0.69 0.20 75 1014.9
20260505233920 16 184 3.2 6.4 0.00 0.69 0.20 75 1015.0
20260505233439 16 208 3.2 6.4 0.00 0.69 0.20 74 1015.1
20260505232917 16 195 3.2 4.8 0.00 0.69 0.20 74 1015.1
20260505232416 16 134 3.2 3.2 0.00 0.69 0.20 74 1015.0
20260505231916 16 197 1.6 3.2 0.00 0.69 0.20 73 1014.9
20260505231419 16 191 3.2 6.4 0.00 0.69 0.20 73 1015.0
20260505230917 17 197 3.2 8.0 0.00 0.69 0.20 75 1014.8
20260505230417 16 192 3.2 4.8 0.00 0.69 0.20 74 1015.1
20260505225920 17 181 3.2 4.8 0.00 0.69 0.20 75 1014.9
20260505225419 17 143 3.2 6.4 0.00 0.69 0.20 74 1014.9
20260505224917 17 190 3.2 4.8 0.00 0.69 0.20 74 1014.8
20260505224417 17 175 3.2 4.8 0.00 0.69 0.20 73 1015.0
20260505223920 17 182 1.6 4.8 0.00 0.69 0.20 74 1015.0
20260505223419 17 199 3.2 4.8 0.00 0.69 0.20 73 1014.8
20260505222918 17 222 1.6 4.8 0.00 0.69 0.20 72 1015.0
20260505222416 17 180 0.0 3.2 0.00 0.69 0.20 72 1015.1
20260505221920 17 188 3.2 3.2 0.00 0.69 0.20 73 1014.9
20260505221419 17 196 3.2 3.2 0.00 0.69 0.20 73 1015.2
20260505220938 17 193 3.2 4.8 0.00 0.69 0.20 73 1015.0
20260505220417 17 251 3.2 4.8 0.00 0.69 0.20 73 1015.0
20260505215915 17 0 0.0 3.2 0.00 0.69 0.20 74 1015.1
20260505215419 17 174 1.6 3.2 0.00 0.69 0.20 72 1015.1
20260505214918 17 231 1.6 3.2 0.00 0.69 0.20 72 1015.1
20260505214437 17 70 0.0 3.2 0.00 0.69 0.20 72 1015.1
20260505213915 17 0 0.0 3.2 0.00 0.69 0.20 72 1015.1
20260505213419 18 241 3.2 4.8 0.00 0.69 0.20 70 1015.3
20260505212918 18 193 3.2 3.2 0.00 0.69 0.20 67 1015.1
20260505212417 18 163 3.2 4.8 0.00 0.69 0.20 67 1015.0
20260505211916 18 157 6.4 8.0 0.00 0.69 0.20 65 1015.1
20260505211419 19 208 3.2 4.8 0.00 0.69 0.20 66 1015.2
20260505210918 19 142 3.2 4.8 0.00 0.69 0.20 67 1015.4
20260505210416 18 157 3.2 4.8 0.00 0.69 0.20 72 1015.3
20260505205916 17 216 1.6 4.8 0.00 0.69 0.20 74 1015.1
20260505205420 17 213 3.2 8.0 0.00 0.69 0.20 78 1015.5
20260505204918 16 184 3.2 4.8 0.00 0.69 0.20 77 1015.6
20260505204416 16 155 3.2 8.0 0.00 0.69 0.20 76 1015.4
20260505203915 16 156 4.8 9.7 0.00 0.69 0.20 76 1015.5
20260505203419 16 190 3.2 4.8 0.00 0.69 0.20 77 1015.6
20260505202918 16 199 4.8 6.4 0.00 0.69 0.20 78 1015.5
20260505202417 16 214 1.6 3.2 0.00 0.69 0.20 78 1015.5
20260505201915 16 185 3.2 4.8 0.00 0.69 0.20 78 1015.4
20260505201440 16 186 3.2 4.8 0.00 0.69 0.20 80 1015.2
20260505200917 16 196 3.2 4.8 0.00 0.69 0.20 80 1015.9
20260505200416 16 157 4.8 4.8 0.00 0.69 0.20 80 1015.8
20260505195916 16 168 3.2 4.8 0.00 0.69 0.20 81 1015.7
20260505195419 16 195 3.2 4.8 0.00 0.69 0.20 80 1015.8
20260505194918 16 190 3.2 6.4 0.00 0.69 0.20 80 1015.7
20260505194417 15 182 3.2 4.8 0.00 0.69 0.20 80 1015.6
20260505193916 15 170 4.8 6.4 0.00 0.69 0.20 79 1015.8
20260505193419 15 180 1.6 4.8 0.00 0.69 0.20 82 1015.7
20260505192918 15 196 4.8 6.4 0.00 0.69 0.20 83 1015.9
20260505192416 15 219 4.8 6.4 0.00 0.69 0.20 82 1015.6
20260505191917 15 206 4.8 6.4 0.00 0.69 0.20 81 1015.7
20260505191419 15 134 6.4 8.0 0.00 0.69 0.20 80 1015.7
20260505190918 15 165 6.4 9.7 0.00 0.69 0.20 81 1015.6
20260505190417 15 194 4.8 6.4 0.00 0.69 0.20 83 1015.6
20260505185916 15 221 1.6 4.8 0.00 0.69 0.20 82 1015.7
20260505185419 15 225 4.8 9.7 0.00 0.69 0.20 80 1015.6
20260505184919 15 201 3.2 6.4 0.00 0.69 0.20 80 1015.8
20260505184417 15 197 3.2 6.4 0.00 0.69 0.20 82 1015.7
20260505183916 15 192 1.6 3.2 0.00 0.69 0.20 83 1015.6
20260505183420 15 222 4.8 6.4 0.00 0.69 0.20 86 1015.4
20260505182918 14 0 0.0 0.0 0.00 0.69 0.20 86 1015.6
20260505182437 14 0 0.0 3.2 0.00 0.69 0.20 85 1015.6
20260505181915 14 114 3.2 8.0 0.00 0.69 0.20 83 1015.6
20260505181420 14 298 3.2 6.4 0.00 0.69 0.20 86 1015.7
20260505180959 14 198 1.6 3.2 0.00 0.69 0.20 88 1015.4
20260505180417 13 320 3.2 4.8 0.00 0.69 0.20 88 1015.6
20260505175916 13 231 1.6 4.8 0.00 0.69 0.20 88 1015.5
20260505175419 13 343 1.6 3.2 0.00 0.69 0.20 89 1015.4
20260505174918 13 157 1.6 3.2 0.00 0.69 0.20 90 1015.3
20260505174417 13 213 1.6 3.2 0.00 0.69 0.20 90 1015.4
20260505173916 13 210 1.6 3.2 0.00 0.69 0.20 91 1015.4
20260505173420 13 204 1.6 3.2 0.00 0.69 0.20 90 1015.4
20260505172939 13 141 1.6 3.2 0.00 0.69 0.20 91 1015.3
20260505172438 13 189 3.2 4.8 0.00 0.69 0.20 91 1015.4
20260505171916 13 0 1.6 3.2 0.00 0.69 0.20 92 1015.5
20260505171420 13 48 1.6 3.2 0.00 0.69 0.20 92 1015.3
20260505170919 13 174 1.6 3.2 0.00 0.69 0.20 92 1015.3
20260505170417 13 214 1.6 3.2 0.00 0.69 0.20 93 1015.3
20260505165916 13 194 1.6 3.2 0.00 0.69 0.20 93 1015.4
20260505165500 13 189 3.2 8.0 0.00 0.69 0.20 93 1015.4
20260505164919 12 188 3.2 3.2 0.00 0.69 0.20 93 1015.4
20260505164418 12 188 3.2 3.2 0.00 0.69 0.20 93 1015.4
20260505163916 12 153 3.2 3.2 0.00 0.69 0.20 93 1015.3
20260505163420 12 185 3.2 3.2 0.00 0.69 0.20 93 1015.2
20260505162919 12 166 1.6 3.2 0.00 0.69 0.20 93 1015.2
20260505162418 12 178 1.6 3.2 0.00 0.69 0.20 93 1015.0
20260505161936 12 200 4.8 6.4 0.00 0.69 0.20 94 1015.2
20260505161441 12 156 1.6 3.2 0.00 0.69 0.20 94 1015.2
20260505160939 12 152 3.2 4.8 0.00 0.69 0.20 94 1015.0
20260505160418 12 167 1.6 3.2 0.00 0.69 0.20 94 1015.0